owner,sensor,date,latitude,longitude,vertical_datum,direction_of_sea_water_velocity,sea_water_speed,upward_sea_water_velocity,qcFlag 
WAVCIS,ioos:station:WAVCIS:CSI10A:1,2019-05-01T00:06:06Z,28.9192,-90.7744,6.4,246.172,16.2,-99999.0,'11111222,11111222,99999999' 
WAVCIS,ioos:station:WAVCIS:CSI10A:1,2019-05-01T01:06:06Z,28.9192,-90.7744,6.4,242.26,16.0,-99999.0,'11111222,11111222,99999999' 
WAVCIS,ioos:station:WAVCIS:CSI10A:1,2019-05-01T02:06:06Z,28.9192,-90.7744,6.4,236.654,19.0,-99999.0,'11111222,11111222,99999999' 
WAVCIS,ioos:station:WAVCIS:CSI10A:1,2019-05-01T03:06:06Z,28.9192,-90.7744,6.4,231.142,19.0,-99999.0,'11111222,11111222,99999999' 
WAVCIS,ioos:station:WAVCIS:CSI10A:1,2019-05-01T04:06:06Z,28.9192,-90.7744,6.4,238.527,21.0,-99999.0,'11111222,11111222,99999999' 
WAVCIS,ioos:station:WAVCIS:CSI10A:1,2019-05-01T05:06:06Z,28.9192,-90.7744,6.4,252.677,21.4,-99999.0,'11111222,11111222,99999999' 
WAVCIS,ioos:station:WAVCIS:CSI10A:1,2019-05-01T06:06:06Z,28.9192,-90.7744,6.4,264.817,21.0,-99999.0,'11111222,11111222,99999999' 
WAVCIS,ioos:station:WAVCIS:CSI10A:1,2019-05-01T07:06:06Z,28.9192,-90.7744,6.4,272.579,19.5,-99999.0,'11111222,11111222,99999999' 
WAVCIS,ioos:station:WAVCIS:CSI10A:1,2019-05-01T08:06:06Z,28.9192,-90.7744,6.4,265.936,13.9,-99999.0,'11111222,11111222,99999999' 
WAVCIS,ioos:station:WAVCIS:CSI10A:1,2019-05-01T09:06:06Z,28.9192,-90.7744,6.4,269.144,13.3,-99999.0,'11111222,11111222,99999999' 
WAVCIS,ioos:station:WAVCIS:CSI10A:1,2019-05-01T10:06:06Z,28.9192,-90.7744,6.4,272.353,12.7,-99999.0,'11111222,11111222,99999999' 
WAVCIS,ioos:station:WAVCIS:CSI10A:1,2019-05-01T11:06:06Z,28.9192,-90.7744,6.4,275.561,12.1,-99999.0,'11111222,11111222,99999999' 
WAVCIS,ioos:station:WAVCIS:CSI10A:1,2019-05-01T12:06:06Z,28.9192,-90.7744,6.4,248.643,15.1,-99999.0,'11111222,11111222,99999999' 
WAVCIS,ioos:station:WAVCIS:CSI10A:1,2019-05-01T13:06:06Z,28.9192,-90.7744,6.4,244.384,16.2,-99999.0,'11111222,11111222,99999999' 
WAVCIS,ioos:station:WAVCIS:CSI10A:1,2019-05-01T14:06:06Z,28.9192,-90.7744,6.4,262.288,12.6,-99999.0,'11111222,11111222,99999999' 
WAVCIS,ioos:station:WAVCIS:CSI10A:1,2019-05-01T15:06:06Z,28.9192,-90.7744,6.4,259.939,19.7,-99999.0,'11111222,11111222,99999999' 
WAVCIS,ioos:station:WAVCIS:CSI10A:1,2019-05-01T16:06:06Z,28.9192,-90.7744,6.4,265.505,15.7,-99999.0,'11111222,11111222,99999999' 
WAVCIS,ioos:station:WAVCIS:CSI10A:1,2019-05-01T17:06:06Z,28.9192,-90.7744,6.4,251.006,11.3,-99999.0,'11111222,11111222,99999999' 
WAVCIS,ioos:station:WAVCIS:CSI10A:1,2019-05-01T18:06:06Z,28.9192,-90.7744,6.4,226.618,14.0,-99999.0,'11111222,11111222,99999999' 
WAVCIS,ioos:station:WAVCIS:CSI10A:1,2019-05-01T19:06:06Z,28.9192,-90.7744,6.4,231.518,13.5,-99999.0,'11111222,11111222,99999999' 
WAVCIS,ioos:station:WAVCIS:CSI10A:1,2019-05-01T20:06:06Z,28.9192,-90.7744,6.4,233.95,14.0,-99999.0,'11111222,11111222,99999999' 
WAVCIS,ioos:station:WAVCIS:CSI10A:1,2019-05-01T21:06:06Z,28.9192,-90.7744,6.4,227.74,16.1,-99999.0,'11111222,11111222,99999999' 
WAVCIS,ioos:station:WAVCIS:CSI10A:1,2019-05-01T22:06:06Z,28.9192,-90.7744,6.4,226.06,18.8,-99999.0,'11111222,11111222,99999999' 
WAVCIS,ioos:station:WAVCIS:CSI10A:1,2019-05-01T23:06:06Z,28.9192,-90.7744,6.4,227.957,21.9,-99999.0,'11111222,11111222,99999999' 
WAVCIS,ioos:station:WAVCIS:CSI10A:1,2019-05-02T00:06:06Z,28.9192,-90.7744,6.4,233.702,19.6,-99999.0,'11111222,11111222,99999999' 
WAVCIS,ioos:station:WAVCIS:CSI10A:1,2019-05-02T01:06:06Z,28.9192,-90.7744,6.4,235.005,19.5,-99999.0,'11111222,11111222,99999999' 
WAVCIS,ioos:station:WAVCIS:CSI10A:1,2019-05-02T02:06:06Z,28.9192,-90.7744,6.4,223.871,20.6,-99999.0,'11111222,11111222,99999999' 
WAVCIS,ioos:station:WAVCIS:CSI10A:1,2019-05-02T03:06:06Z,28.9192,-90.7744,6.4,247.964,18.8,-99999.0,'11111222,11111222,99999999' 
WAVCIS,ioos:station:WAVCIS:CSI10A:1,2019-05-02T04:06:06Z,28.9192,-90.7744,6.4,249.448,21.2,-99999.0,'11111222,11111222,99999999' 
WAVCIS,ioos:station:WAVCIS:CSI10A:1,2019-05-02T05:06:06Z,28.9192,-90.7744,6.4,244.557,22.7,-99999.0,'11111222,11111222,99999999' 
WAVCIS,ioos:station:WAVCIS:CSI10A:1,2019-05-02T06:06:06Z,28.9192,-90.7744,6.4,239.452,19.7,-99999.0,'11111222,11111222,99999999' 
WAVCIS,ioos:station:WAVCIS:CSI10A:1,2019-05-02T07:06:06Z,28.9192,-90.7744,6.4,246.562,16.7,-99999.0,'11111222,11111222,99999999' 
WAVCIS,ioos:station:WAVCIS:CSI10A:1,2019-05-02T08:06:06Z,28.9192,-90.7744,6.4,244.781,16.1,-99999.0,'11111222,11111222,99999999' 
WAVCIS,ioos:station:WAVCIS:CSI10A:1,2019-05-02T09:06:06Z,28.9192,-90.7744,6.4,229.548,15.0,-99999.0,'11111222,11111222,99999999' 
WAVCIS,ioos:station:WAVCIS:CSI10A:1,2019-05-02T10:06:06Z,28.9192,-90.7744,6.4,230.112,18.0,-99999.0,'11111222,11111222,99999999' 
WAVCIS,ioos:station:WAVCIS:CSI10A:1,2019-05-02T11:06:06Z,28.9192,-90.7744,6.4,231.126,18.5,-99999.0,'11111222,11111222,99999999' 
WAVCIS,ioos:station:WAVCIS:CSI10A:1,2019-05-02T12:06:06Z,28.9192,-90.7744,6.4,231.9,21.6,-99999.0,'11111222,11111222,99999999' 
WAVCIS,ioos:station:WAVCIS:CSI10A:1,2019-05-02T13:06:06Z,28.9192,-90.7744,6.4,236.307,22.7,-99999.0,'11111222,11111222,99999999' 
WAVCIS,ioos:station:WAVCIS:CSI10A:1,2019-05-02T14:06:06Z,28.9192,-90.7744,6.4,253.961,19.3,-99999.0,'11111222,11111222,99999999' 
WAVCIS,ioos:station:WAVCIS:CSI10A:1,2019-05-02T15:06:06Z,28.9192,-90.7744,6.4,278.77,22.2,-99999.0,'11111222,11111222,99999999' 
WAVCIS,ioos:station:WAVCIS:CSI10A:1,2019-05-02T16:06:06Z,28.9192,-90.7744,6.4,273.352,23.4,-99999.0,'11111222,11111222,99999999' 
WAVCIS,ioos:station:WAVCIS:CSI10A:1,2019-05-02T17:06:06Z,28.9192,-90.7744,6.4,271.852,19.4,-99999.0,'11111222,11111222,99999999' 
WAVCIS,ioos:station:WAVCIS:CSI10A:1,2019-05-02T18:06:06Z,28.9192,-90.7744,6.4,254.372,16.1,-99999.0,'11111222,11111222,99999999' 
WAVCIS,ioos:station:WAVCIS:CSI10A:1,2019-05-02T19:06:06Z,28.9192,-90.7744,6.4,237.0,18.0,-99999.0,'11111222,11111222,99999999' 
WAVCIS,ioos:station:WAVCIS:CSI10A:1,2019-05-02T20:06:06Z,28.9192,-90.7744,6.4,237.627,20.9,-99999.0,'11111222,11111222,99999999' 
WAVCIS,ioos:station:WAVCIS:CSI10A:1,2019-05-02T21:06:06Z,28.9192,-90.7744,6.4,239.527,20.6,-99999.0,'11111222,11111222,99999999' 
WAVCIS,ioos:station:WAVCIS:CSI10A:1,2019-05-02T22:06:06Z,28.9192,-90.7744,6.4,241.428,20.3,-99999.0,'11111222,11111222,99999999' 
WAVCIS,ioos:station:WAVCIS:CSI10A:1,2019-05-02T23:06:06Z,28.9192,-90.7744,6.4,241.862,21.4,-99999.0,'11111222,11111222,99999999' 
WAVCIS,ioos:station:WAVCIS:CSI10A:1,2019-05-03T00:06:06Z,28.9192,-90.7744,6.4,235.288,29.4,-99999.0,'11111222,11111222,99999999' 
WAVCIS,ioos:station:WAVCIS:CSI10A:1,2019-05-03T01:06:06Z,28.9192,-90.7744,6.4,259.593,27.1,-99999.0,'11111222,11111222,99999999' 
WAVCIS,ioos:station:WAVCIS:CSI10A:1,2019-05-03T02:06:06Z,28.9192,-90.7744,6.4,251.847,27.9,-99999.0,'11111222,11111222,99999999' 
WAVCIS,ioos:station:WAVCIS:CSI10A:1,2019-05-03T03:06:06Z,28.9192,-90.7744,6.4,253.005,27.2,-99999.0,'11111222,11111222,99999999' 
WAVCIS,ioos:station:WAVCIS:CSI10A:1,2019-05-03T04:06:06Z,28.9192,-90.7744,6.4,249.7,29.0,-99999.0,'11111222,11111222,99999999' 
WAVCIS,ioos:station:WAVCIS:CSI10A:1,2019-05-03T05:06:06Z,28.9192,-90.7744,6.4,241.354,30.3,-99999.0,'11111222,11111222,99999999' 
WAVCIS,ioos:station:WAVCIS:CSI10A:1,2019-05-03T06:06:06Z,28.9192,-90.7744,6.4,243.0,27.0,-99999.0,'11111222,11111222,99999999' 
WAVCIS,ioos:station:WAVCIS:CSI10A:1,2019-05-03T07:06:06Z,28.9192,-90.7744,6.4,245.196,22.0,-99999.0,'11111222,11111222,99999999' 
WAVCIS,ioos:station:WAVCIS:CSI10A:1,2019-05-03T08:06:06Z,28.9192,-90.7744,6.4,239.643,20.0,-99999.0,'11111222,11111222,99999999' 
WAVCIS,ioos:station:WAVCIS:CSI10A:1,2019-05-03T09:06:06Z,28.9192,-90.7744,6.4,257.828,13.6,-99999.0,'11111222,11111222,99999999' 
WAVCIS,ioos:station:WAVCIS:CSI10A:1,2019-05-03T10:06:06Z,28.9192,-90.7744,6.4,262.215,11.8,-99999.0,'11111222,11111222,99999999' 
WAVCIS,ioos:station:WAVCIS:CSI10A:1,2019-05-03T11:06:06Z,28.9192,-90.7744,6.4,260.064,11.5,-99999.0,'11111222,11111222,99999999' 
WAVCIS,ioos:station:WAVCIS:CSI10A:1,2019-05-03T12:06:06Z,28.9192,-90.7744,6.4,257.914,11.2,-99999.0,'11111222,11111222,99999999' 
WAVCIS,ioos:station:WAVCIS:CSI10A:1,2019-05-03T13:06:06Z,28.9192,-90.7744,6.4,253.055,11.2,-99999.0,'11111222,11111222,99999999' 
WAVCIS,ioos:station:WAVCIS:CSI10A:1,2019-05-03T14:06:06Z,28.9192,-90.7744,6.4,242.996,12.0,-99999.0,'11111222,11111222,99999999' 
WAVCIS,ioos:station:WAVCIS:CSI10A:1,2019-05-03T15:06:06Z,28.9192,-90.7744,6.4,232.936,12.7,-99999.0,'11111222,11111222,99999999' 
WAVCIS,ioos:station:WAVCIS:CSI10A:1,2019-05-03T16:06:06Z,28.9192,-90.7744,6.4,222.877,13.4,-99999.0,'11111222,11111222,99999999' 
WAVCIS,ioos:station:WAVCIS:CSI10A:1,2019-05-03T17:06:06Z,28.9192,-90.7744,6.4,214.071,16.6,-99999.0,'11111222,11111222,99999999' 
WAVCIS,ioos:station:WAVCIS:CSI10A:1,2019-05-03T18:06:06Z,28.9192,-90.7744,6.4,221.987,16.0,-99999.0,'11111222,11111222,99999999' 
WAVCIS,ioos:station:WAVCIS:CSI10A:1,2019-05-03T19:06:06Z,28.9192,-90.7744,6.4,230.05,14.9,-99999.0,'11111222,11111222,99999999' 
WAVCIS,ioos:station:WAVCIS:CSI10A:1,2019-05-03T20:06:06Z,28.9192,-90.7744,6.4,238.106,13.7,-99999.0,'11111222,11111222,99999999' 
WAVCIS,ioos:station:WAVCIS:CSI10A:1,2019-05-03T21:06:06Z,28.9192,-90.7744,6.4,242.333,14.8,-99999.0,'11111222,11111222,99999999' 
WAVCIS,ioos:station:WAVCIS:CSI10A:1,2019-05-03T22:06:06Z,28.9192,-90.7744,6.4,243.881,17.6,-99999.0,'11111222,11111222,99999999' 
WAVCIS,ioos:station:WAVCIS:CSI10A:1,2019-05-03T23:06:06Z,28.9192,-90.7744,6.4,248.558,18.9,-99999.0,'11111222,11111222,99999999' 
WAVCIS,ioos:station:WAVCIS:CSI10A:1,2019-05-04T00:06:06Z,28.9192,-90.7744,6.4,253.234,20.1,-99999.0,'11111222,11111222,99999999' 
WAVCIS,ioos:station:WAVCIS:CSI10A:1,2019-05-04T01:06:06Z,28.9192,-90.7744,6.4,253.7,20.7,-99999.0,'11111222,11111222,99999999' 
WAVCIS,ioos:station:WAVCIS:CSI10A:1,2019-05-04T02:06:06Z,28.9192,-90.7744,6.4,247.994,22.0,-99999.0,'11111222,11111222,99999999' 
WAVCIS,ioos:station:WAVCIS:CSI10A:1,2019-05-04T03:06:06Z,28.9192,-90.7744,6.4,256.287,15.9,-99999.0,'11111222,11111222,99999999' 
WAVCIS,ioos:station:WAVCIS:CSI10A:1,2019-05-04T04:06:06Z,28.9192,-90.7744,6.4,254.062,19.0,-99999.0,'11111222,11111222,99999999' 
WAVCIS,ioos:station:WAVCIS:CSI10A:1,2019-05-04T05:06:06Z,28.9192,-90.7744,6.4,229.354,28.1,-99999.0,'11111222,11111222,99999999' 
WAVCIS,ioos:station:WAVCIS:CSI10A:1,2019-05-04T06:06:06Z,28.9192,-90.7744,6.4,239.341,21.4,-99999.0,'11111222,11111222,99999999' 
WAVCIS,ioos:station:WAVCIS:CSI10A:1,2019-05-04T07:06:06Z,28.9192,-90.7744,6.4,251.968,17.8,-99999.0,'11111222,11111222,99999999' 
WAVCIS,ioos:station:WAVCIS:CSI10A:1,2019-05-04T08:06:06Z,28.9192,-90.7744,6.4,251.908,15.8,-99999.0,'11111222,11111222,99999999' 
WAVCIS,ioos:station:WAVCIS:CSI10A:1,2019-05-04T09:06:06Z,28.9192,-90.7744,6.4,273.73,17.0,-99999.0,'11111222,11111222,99999999' 
WAVCIS,ioos:station:WAVCIS:CSI10A:1,2019-05-04T10:06:06Z,28.9192,-90.7744,6.4,299.504,19.3,-99999.0,'11111222,11111222,99999999' 
WAVCIS,ioos:station:WAVCIS:CSI10A:1,2019-05-04T11:06:06Z,28.9192,-90.7744,6.4,318.932,21.6,-99999.0,'11111222,11111222,99999999' 
WAVCIS,ioos:station:WAVCIS:CSI10A:1,2019-05-04T12:06:06Z,28.9192,-90.7744,6.4,326.606,18.0,-99999.0,'11111222,11111222,99999999' 
WAVCIS,ioos:station:WAVCIS:CSI10A:1,2019-05-04T13:06:06Z,28.9192,-90.7744,6.4,329.257,15.3,-99999.0,'11111222,11111222,99999999' 
WAVCIS,ioos:station:WAVCIS:CSI10A:1,2019-05-04T14:06:06Z,28.9192,-90.7744,6.4,306.835,16.9,-99999.0,'11111222,11111222,99999999' 
WAVCIS,ioos:station:WAVCIS:CSI10A:1,2019-05-04T15:06:06Z,28.9192,-90.7744,6.4,282.993,13.5,-99999.0,'11111222,11111222,99999999' 
WAVCIS,ioos:station:WAVCIS:CSI10A:1,2019-05-04T16:06:06Z,28.9192,-90.7744,6.4,196.502,8.5,-99999.0,'11111222,11111222,99999999' 
WAVCIS,ioos:station:WAVCIS:CSI10A:1,2019-05-04T17:06:06Z,28.9192,-90.7744,6.4,315.976,3.6,-99999.0,'11111222,11111222,99999999' 
WAVCIS,ioos:station:WAVCIS:CSI10A:1,2019-05-04T18:06:06Z,28.9192,-90.7744,6.4,314.26,8.7,-99999.0,'11111222,11111222,99999999' 
WAVCIS,ioos:station:WAVCIS:CSI10A:1,2019-05-04T19:06:06Z,28.9192,-90.7744,6.4,269.974,7.8,-99999.0,'11111222,11111222,99999999' 
WAVCIS,ioos:station:WAVCIS:CSI10A:1,2019-05-04T20:06:06Z,28.9192,-90.7744,6.4,212.88,10.2,-99999.0,'11111222,11111222,99999999' 
WAVCIS,ioos:station:WAVCIS:CSI10A:1,2019-05-04T21:06:06Z,28.9192,-90.7744,6.4,153.329,6.1,-99999.0,'11111222,11111222,99999999' 
WAVCIS,ioos:station:WAVCIS:CSI10A:1,2019-05-04T22:06:06Z,28.9192,-90.7744,6.4,186.357,3.3,-99999.0,'11111222,11111222,99999999' 
WAVCIS,ioos:station:WAVCIS:CSI10A:1,2019-05-04T23:06:06Z,28.9192,-90.7744,6.4,197.381,3.0,-99999.0,'11133222,11111222,99999999' 
WAVCIS,ioos:station:WAVCIS:CSI10A:1,2019-05-05T00:06:06Z,28.9192,-90.7744,6.4,183.513,4.0,-99999.0,'11111222,11111222,99999999' 
WAVCIS,ioos:station:WAVCIS:CSI10A:1,2019-05-05T01:06:06Z,28.9192,-90.7744,6.4,200.869,3.8,-99999.0,'11111222,11111222,99999999' 
WAVCIS,ioos:station:WAVCIS:CSI10A:1,2019-05-05T02:06:06Z,28.9192,-90.7744,6.4,230.581,5.7,-99999.0,'11111222,11111222,99999999' 
WAVCIS,ioos:station:WAVCIS:CSI10A:1,2019-05-05T03:06:06Z,28.9192,-90.7744,6.4,146.738,4.4,-99999.0,'11111222,11111222,99999999' 
WAVCIS,ioos:station:WAVCIS:CSI10A:1,2019-05-05T04:06:06Z,28.9192,-90.7744,6.4,51.119,2.8,-99999.0,'11133222,11111222,99999999' 
WAVCIS,ioos:station:WAVCIS:CSI10A:1,2019-05-05T05:06:06Z,28.9192,-90.7744,6.4,44.733,2.4,-99999.0,'11133222,11111222,99999999' 
WAVCIS,ioos:station:WAVCIS:CSI10A:1,2019-05-05T06:06:06Z,28.9192,-90.7744,6.4,85.407,7.5,-99999.0,'11111222,11111222,99999999' 
WAVCIS,ioos:station:WAVCIS:CSI10A:1,2019-05-05T07:06:06Z,28.9192,-90.7744,6.4,44.411,11.8,-99999.0,'11111222,11111222,99999999' 
WAVCIS,ioos:station:WAVCIS:CSI10A:1,2019-05-05T08:06:06Z,28.9192,-90.7744,6.4,78.24,8.2,-99999.0,'11111222,11111222,99999999' 
WAVCIS,ioos:station:WAVCIS:CSI10A:1,2019-05-05T09:06:06Z,28.9192,-90.7744,6.4,117.87,9.2,-99999.0,'11111222,11111222,99999999' 
WAVCIS,ioos:station:WAVCIS:CSI10A:1,2019-05-05T10:06:06Z,28.9192,-90.7744,6.4,101.715,10.9,-99999.0,'11111222,11111222,99999999' 
WAVCIS,ioos:station:WAVCIS:CSI10A:1,2019-05-05T11:06:06Z,28.9192,-90.7744,6.4,93.875,12.3,-99999.0,'11111222,11111222,99999999' 
WAVCIS,ioos:station:WAVCIS:CSI10A:1,2019-05-05T12:06:06Z,28.9192,-90.7744,6.4,106.411,9.5,-99999.0,'11111222,11111222,99999999' 
WAVCIS,ioos:station:WAVCIS:CSI10A:1,2019-05-05T13:06:06Z,28.9192,-90.7744,6.4,188.247,26.4,-99999.0,'11111222,11111222,99999999' 
WAVCIS,ioos:station:WAVCIS:CSI10A:1,2019-05-05T14:06:06Z,28.9192,-90.7744,6.4,205.385,25.8,-99999.0,'11111222,11111222,99999999' 
WAVCIS,ioos:station:WAVCIS:CSI10A:1,2019-05-05T15:06:06Z,28.9192,-90.7744,6.4,210.58,22.0,-99999.0,'11111222,11111222,99999999' 
WAVCIS,ioos:station:WAVCIS:CSI10A:1,2019-05-05T16:06:06Z,28.9192,-90.7744,6.4,215.774,18.3,-99999.0,'11111222,11111222,99999999' 
WAVCIS,ioos:station:WAVCIS:CSI10A:1,2019-05-05T17:06:06Z,28.9192,-90.7744,6.4,218.702,18.6,-99999.0,'11111222,11111222,99999999' 
WAVCIS,ioos:station:WAVCIS:CSI10A:1,2019-05-05T18:06:06Z,28.9192,-90.7744,6.4,219.0,20.5,-99999.0,'11111222,11111222,99999999' 
WAVCIS,ioos:station:WAVCIS:CSI10A:1,2019-05-05T19:06:06Z,28.9192,-90.7744,6.4,220.773,24.7,-99999.0,'11111222,11111222,99999999' 
WAVCIS,ioos:station:WAVCIS:CSI10A:1,2019-05-05T20:06:06Z,28.9192,-90.7744,6.4,218.069,29.1,-99999.0,'11111222,11111222,99999999' 
WAVCIS,ioos:station:WAVCIS:CSI10A:1,2019-05-05T21:06:06Z,28.9192,-90.7744,6.4,221.309,23.4,-99999.0,'11111222,11111222,99999999' 
WAVCIS,ioos:station:WAVCIS:CSI10A:1,2019-05-05T22:06:06Z,28.9192,-90.7744,6.4,223.675,18.4,-99999.0,'11111222,11111222,99999999' 
WAVCIS,ioos:station:WAVCIS:CSI10A:1,2019-05-05T23:06:06Z,28.9192,-90.7744,6.4,230.057,18.3,-99999.0,'11111222,11111222,99999999' 
WAVCIS,ioos:station:WAVCIS:CSI10A:1,2019-05-06T00:06:06Z,28.9192,-90.7744,6.4,244.473,21.0,-99999.0,'11111222,11111222,99999999' 
WAVCIS,ioos:station:WAVCIS:CSI10A:1,2019-05-06T01:06:06Z,28.9192,-90.7744,6.4,262.262,22.6,-99999.0,'11111222,11111222,99999999' 
WAVCIS,ioos:station:WAVCIS:CSI10A:1,2019-05-06T02:06:06Z,28.9192,-90.7744,6.4,247.167,32.2,-99999.0,'11111222,11111222,99999999' 
WAVCIS,ioos:station:WAVCIS:CSI10A:1,2019-05-06T03:06:06Z,28.9192,-90.7744,6.4,258.0,36.0,-99999.0,'11111222,11111222,99999999' 
WAVCIS,ioos:station:WAVCIS:CSI10A:1,2019-05-06T04:06:06Z,28.9192,-90.7744,6.4,247.049,38.3,-99999.0,'11111222,11111222,99999999' 
WAVCIS,ioos:station:WAVCIS:CSI10A:1,2019-05-06T05:06:06Z,28.9192,-90.7744,6.4,256.406,45.7,-99999.0,'11111222,11111222,99999999' 
WAVCIS,ioos:station:WAVCIS:CSI10A:1,2019-05-06T06:06:06Z,28.9192,-90.7744,6.4,270.612,37.0,-99999.0,'11111222,11111222,99999999' 
WAVCIS,ioos:station:WAVCIS:CSI10A:1,2019-05-06T07:06:06Z,28.9192,-90.7744,6.4,312.077,46.9,-99999.0,'11111222,11111222,99999999' 
WAVCIS,ioos:station:WAVCIS:CSI10A:1,2019-05-06T08:06:06Z,28.9192,-90.7744,6.4,319.994,39.0,-99999.0,'11111222,11111222,99999999' 
WAVCIS,ioos:station:WAVCIS:CSI10A:1,2019-05-06T09:06:06Z,28.9192,-90.7744,6.4,327.602,28.2,-99999.0,'11111222,11111222,99999999' 
WAVCIS,ioos:station:WAVCIS:CSI10A:1,2019-05-06T10:06:06Z,28.9192,-90.7744,6.4,304.491,9.2,-99999.0,'11111222,11111222,99999999' 
WAVCIS,ioos:station:WAVCIS:CSI10A:1,2019-05-06T11:06:06Z,28.9192,-90.7744,6.4,172.422,4.4,-99999.0,'11111222,11111222,99999999' 
WAVCIS,ioos:station:WAVCIS:CSI10A:1,2019-05-06T12:06:06Z,28.9192,-90.7744,6.4,103.513,7.1,-99999.0,'11111222,11111222,99999999' 
WAVCIS,ioos:station:WAVCIS:CSI10A:1,2019-05-06T13:06:06Z,28.9192,-90.7744,6.4,88.924,9.6,-99999.0,'11111222,11111222,99999999' 
WAVCIS,ioos:station:WAVCIS:CSI10A:1,2019-05-06T14:06:06Z,28.9192,-90.7744,6.4,81.498,12.0,-99999.0,'11111222,11111222,99999999' 
WAVCIS,ioos:station:WAVCIS:CSI10A:1,2019-05-06T15:06:06Z,28.9192,-90.7744,6.4,202.137,12.4,-99999.0,'11111222,11111222,99999999' 
WAVCIS,ioos:station:WAVCIS:CSI10A:1,2019-05-06T16:06:06Z,28.9192,-90.7744,6.4,209.147,14.7,-99999.0,'11111222,11111222,99999999' 
WAVCIS,ioos:station:WAVCIS:CSI10A:1,2019-05-06T17:06:06Z,28.9192,-90.7744,6.4,219.377,22.6,-99999.0,'11111222,11111222,99999999' 
WAVCIS,ioos:station:WAVCIS:CSI10A:1,2019-05-06T18:06:06Z,28.9192,-90.7744,6.4,222.664,19.3,-99999.0,'11111222,11111222,99999999' 
WAVCIS,ioos:station:WAVCIS:CSI10A:1,2019-05-06T19:06:06Z,28.9192,-90.7744,6.4,224.754,17.2,-99999.0,'11111222,11111222,99999999' 
WAVCIS,ioos:station:WAVCIS:CSI10A:1,2019-05-06T20:06:06Z,28.9192,-90.7744,6.4,224.14,22.7,-99999.0,'11111222,11111222,99999999' 
WAVCIS,ioos:station:WAVCIS:CSI10A:1,2019-05-06T21:06:06Z,28.9192,-90.7744,6.4,223.5,29.0,-99999.0,'11111222,11111222,99999999' 
WAVCIS,ioos:station:WAVCIS:CSI10A:1,2019-05-06T22:06:06Z,28.9192,-90.7744,6.4,223.5,35.0,-99999.0,'11111222,11111222,99999999' 
WAVCIS,ioos:station:WAVCIS:CSI10A:1,2019-05-06T23:06:06Z,28.9192,-90.7744,6.4,223.5,41.0,-99999.0,'11111222,11111222,99999999' 
WAVCIS,ioos:station:WAVCIS:CSI10A:1,2019-05-07T00:06:06Z,28.9192,-90.7744,6.4,223.5,47.0,-99999.0,'11111222,11111222,99999999' 
WAVCIS,ioos:station:WAVCIS:CSI10A:1,2019-05-07T01:06:06Z,28.9192,-90.7744,6.4,225.287,50.8,-99999.0,'11111222,11111222,99999999' 
WAVCIS,ioos:station:WAVCIS:CSI10A:1,2019-05-07T02:06:06Z,28.9192,-90.7744,6.4,228.896,52.4,-99999.0,'11111222,11111222,99999999' 
WAVCIS,ioos:station:WAVCIS:CSI10A:1,2019-05-07T03:06:06Z,28.9192,-90.7744,6.4,232.5,54.0,-99999.0,'11111222,11111222,99999999' 
WAVCIS,ioos:station:WAVCIS:CSI10A:1,2019-05-07T04:06:06Z,28.9192,-90.7744,6.4,248.437,52.9,-99999.0,'11111222,11111222,99999999' 
WAVCIS,ioos:station:WAVCIS:CSI10A:1,2019-05-07T05:06:06Z,28.9192,-90.7744,6.4,264.623,52.7,-99999.0,'11111222,11111222,99999999' 
WAVCIS,ioos:station:WAVCIS:CSI10A:1,2019-05-07T06:06:06Z,28.9192,-90.7744,6.4,266.799,53.4,-99999.0,'11111222,11111222,99999999' 
WAVCIS,ioos:station:WAVCIS:CSI10A:1,2019-05-07T07:06:06Z,28.9192,-90.7744,6.4,281.946,51.5,-99999.0,'11111222,11111222,99999999' 
WAVCIS,ioos:station:WAVCIS:CSI10A:1,2019-05-07T08:06:06Z,28.9192,-90.7744,6.4,285.863,48.1,-99999.0,'11111222,11111222,99999999' 
WAVCIS,ioos:station:WAVCIS:CSI10A:1,2019-05-07T09:06:06Z,28.9192,-90.7744,6.4,287.257,43.9,-99999.0,'11111222,11111222,99999999' 
WAVCIS,ioos:station:WAVCIS:CSI10A:1,2019-05-07T10:06:06Z,28.9192,-90.7744,6.4,289.339,38.2,-99999.0,'11111222,11111222,99999999' 
WAVCIS,ioos:station:WAVCIS:CSI10A:1,2019-05-07T11:06:06Z,28.9192,-90.7744,6.4,291.421,32.4,-99999.0,'11111222,11111222,99999999' 
WAVCIS,ioos:station:WAVCIS:CSI10A:1,2019-05-07T12:06:06Z,28.9192,-90.7744,6.4,293.503,26.7,-99999.0,'11111222,11111222,99999999' 
WAVCIS,ioos:station:WAVCIS:CSI10A:1,2019-05-07T13:06:06Z,28.9192,-90.7744,6.4,295.585,20.9,-99999.0,'11111222,11111222,99999999' 
WAVCIS,ioos:station:WAVCIS:CSI10A:1,2019-05-07T14:06:06Z,28.9192,-90.7744,6.4,294.887,17.2,-99999.0,'11111222,11111222,99999999' 
WAVCIS,ioos:station:WAVCIS:CSI10A:1,2019-05-07T15:06:06Z,28.9192,-90.7744,6.4,288.288,17.7,-99999.0,'11111222,11111222,99999999' 
WAVCIS,ioos:station:WAVCIS:CSI10A:1,2019-05-07T16:06:06Z,28.9192,-90.7744,6.4,281.689,18.3,-99999.0,'11111222,11111222,99999999' 
WAVCIS,ioos:station:WAVCIS:CSI10A:1,2019-05-07T17:06:06Z,28.9192,-90.7744,6.4,275.09,18.8,-99999.0,'11111222,11111222,99999999' 
WAVCIS,ioos:station:WAVCIS:CSI10A:1,2019-05-07T18:06:06Z,28.9192,-90.7744,6.4,268.491,19.4,-99999.0,'11111222,11111222,99999999' 
WAVCIS,ioos:station:WAVCIS:CSI10A:1,2019-05-07T19:06:06Z,28.9192,-90.7744,6.4,261.893,19.9,-99999.0,'11111222,11111222,99999999' 
WAVCIS,ioos:station:WAVCIS:CSI10A:1,2019-05-07T20:06:06Z,28.9192,-90.7744,6.4,240.198,17.1,-99999.0,'11111222,11111222,99999999' 
WAVCIS,ioos:station:WAVCIS:CSI10A:1,2019-05-07T21:06:06Z,28.9192,-90.7744,6.4,215.747,23.8,-99999.0,'11111222,11111222,99999999' 
WAVCIS,ioos:station:WAVCIS:CSI10A:1,2019-05-07T22:06:06Z,28.9192,-90.7744,6.4,225.082,24.9,-99999.0,'11111222,11111222,99999999' 
WAVCIS,ioos:station:WAVCIS:CSI10A:1,2019-05-07T23:06:06Z,28.9192,-90.7744,6.4,228.037,24.5,-99999.0,'11111222,11111222,99999999' 
WAVCIS,ioos:station:WAVCIS:CSI10A:1,2019-05-08T00:06:06Z,28.9192,-90.7744,6.4,233.435,22.7,-99999.0,'11111222,11111222,99999999' 
WAVCIS,ioos:station:WAVCIS:CSI10A:1,2019-05-08T01:06:06Z,28.9192,-90.7744,6.4,238.158,23.2,-99999.0,'11111222,11111222,99999999' 
WAVCIS,ioos:station:WAVCIS:CSI10A:1,2019-05-08T02:06:06Z,28.9192,-90.7744,6.4,224.641,33.3,-99999.0,'11111222,11111222,99999999' 
WAVCIS,ioos:station:WAVCIS:CSI10A:1,2019-05-08T03:06:06Z,28.9192,-90.7744,6.4,236.578,30.6,-99999.0,'11111222,11111222,99999999' 
WAVCIS,ioos:station:WAVCIS:CSI10A:1,2019-05-08T04:06:06Z,28.9192,-90.7744,6.4,230.615,29.8,-99999.0,'11111222,11111222,99999999' 
WAVCIS,ioos:station:WAVCIS:CSI10A:1,2019-05-08T05:06:06Z,28.9192,-90.7744,6.4,243.79,30.6,-99999.0,'11111222,11111222,99999999' 
WAVCIS,ioos:station:WAVCIS:CSI10A:1,2019-05-08T06:06:06Z,28.9192,-90.7744,6.4,226.297,35.1,-99999.0,'11111222,11111222,99999999' 
WAVCIS,ioos:station:WAVCIS:CSI10A:1,2019-05-08T07:06:06Z,28.9192,-90.7744,6.4,221.654,29.0,-99999.0,'11111222,11111222,99999999' 
WAVCIS,ioos:station:WAVCIS:CSI10A:1,2019-05-08T08:06:06Z,28.9192,-90.7744,6.4,229.679,24.8,-99999.0,'11111222,11111222,99999999' 
WAVCIS,ioos:station:WAVCIS:CSI10A:1,2019-05-08T09:06:06Z,28.9192,-90.7744,6.4,238.299,22.1,-99999.0,'11111222,11111222,99999999' 
WAVCIS,ioos:station:WAVCIS:CSI10A:1,2019-05-08T10:06:06Z,28.9192,-90.7744,6.4,259.891,19.3,-99999.0,'11111222,11111222,99999999' 
WAVCIS,ioos:station:WAVCIS:CSI10A:1,2019-05-08T11:06:06Z,28.9192,-90.7744,6.4,250.557,14.0,-99999.0,'11111222,11111222,99999999' 
WAVCIS,ioos:station:WAVCIS:CSI10A:1,2019-05-08T12:06:06Z,28.9192,-90.7744,6.4,255.686,11.0,-99999.0,'11111222,11111222,99999999' 
WAVCIS,ioos:station:WAVCIS:CSI10A:1,2019-05-08T13:06:06Z,28.9192,-90.7744,6.4,253.051,8.4,-99999.0,'11111222,11111222,99999999' 
WAVCIS,ioos:station:WAVCIS:CSI10A:1,2019-05-08T14:06:06Z,28.9192,-90.7744,6.4,235.303,7.3,-99999.0,'11111222,11111222,99999999' 
WAVCIS,ioos:station:WAVCIS:CSI10A:1,2019-05-08T15:06:06Z,28.9192,-90.7744,6.4,229.102,10.7,-99999.0,'11111222,11111222,99999999' 